Theta_e
350 353 347 339 341 348 349 352 348 337 339 347 346 357 355 356 357 357 358 351 348 344 341 340 341 341 342 344 345 345 345 343 341 341 342 344 347 349
352 351 348 340 342 348 349 351 352 348 340 348 348 355 357 355 357 358 355 348 346 343 340 338 338 339 339 340 340 341 340 339 339 339 342 343 344 346
355 351 348 354 349 352 356 354 351 351 345 347 352 357 358 358 358 359 351 357 357 342 340 338 336 336 337 337 338 338 338 337 338 342 342 342 342 342
351 352 348 349 348 355 354 354 350 354 348 343 349 352 355 359 358 355 351 354 357 349 339 337 335 333 333 333 332 332 332 333 338 338 339 339 339 339
350 351 352 352 351 349 350 350 352 351 351 345 344 351 352 353 355 355 350 348 351 351 341 337 335 334 332 330 328 325 323 324 328 329 331 332 334 337
351 351 351 352 352 354 352 350 350 350 348 344 343 347 350 353 352 348 349 350 352 355 349 346 342 336 334 331 329 327 322 319 319 321 323 323 324 328
348 347 349 349 344 346 353 353 353 350 346 343 342 344 345 344 345 347 348 349 355 356 353 354 354 354 351 335 343 334 326 322 319 318 318 316 316 318
341 345 347 343 342 336 337 339 347 349 344 343 343 341 344 344 351 347 348 344 344 356 353 349 354 353 355 357 343 335 327 324 322 320 318 316 316 316
339 340 338 344 342 346 340 333 335 335 338 348 343 345 344 352 352 350 351 349 347 354 354 346 354 350 355 353 332 329 326 323 323 321 319 317 316 314
336 337 338 340 340 345 347 347 345 346 348 343 345 352 353 360 359 357 358 357 352 352 357 345 351 349 353 355 332 328 324 322 321 320 319 316 314 312
335 335 336 337 331 326 343 343 346 346 336 331 332 334 332 328 341 350 347 345 340 342 353 349 347 347 351 351 352 327 323 320 319 319 318 315 311 309
329 333 328 332 325 322 342 344 342 344 344 345 344 334 328 334 328 345 347 341 341 339 352 347 346 346 343 350 352 348 345 317 315 315 315 313 309 331
322 326 333 322 316 315 316 339 341 343 340 341 340 339 341 344 344 345 349 344 342 342 348 351 348 346 344 343 347 348 347 340 341 329 308 307 307 325
321 326 328 317 312 312 315 318 316 322 339 336 335 335 337 341 345 347 349 352 352 352 359 354 348 346 344 339 339 345 346 346 345 341 335 311 307 309
324 319 313 311 309 311 309 310 312 324 331 334 333 335 338 340 346 351 350 350 353 350 349 354 351 351 348 340 338 341 341 342 345 344 339 329 329 326
320 317 313 315 315 320 322 322 324 327 329 332 333 336 339 339 340 343 346 342 341 340 346 352 350 349 341 342 341 339 340 339 344 344 341 339 336 336
303 315 325 325 325 328 329 330 322 323 326 330 330 332 336 337 335 346 346 342 336 334 333 338 340 346 343 340 334 335 337 340 342 337 336 331 332 332
312 325 326 324 325 326 329 328 328 327 330 334 335 337 333 332 333 338 341 335 334 332 331 326 326 326 324 322 324 333 338 337 338 339 333 329 324 325
329 329 328 323 323 324 325 329 328 330 333 335 333 335 334 331 330 331 332 333 331 331 331 328 330 331 324 321 320 311 330 328 325 322 325 325 326 324
326 326 327 327 323 323 322 324 326 329 331 330 330 331 334 332 331 329 328 328 327 326 326 329 330 329 327 325 322 317 305 324 324 321 321 323 314 312
324 324 326 324 325 325 322 322 324 325 327 328 327 329 328 327 327 328 327 318 321 326 326 326 327 321 323 324 318 315 312 308 315 322 319 318 317 315
326 325 326 326 325 326 327 322 322 322 326 325 325 326 326 326 325 324 324 323 323 322 320 321 324 324 323 321 317 315 313 313 311 311 311 313 322 317
327 328 327 328 328 328 328 328 328 328 327 326 328 327 323 320 320 322 322 321 320 318 317 316 316 320 320 320 318 318 318 319 320 320 322 309 309 308
Wind_Speed
12 14 13 11 8 8 11 11 11 16 15 10 11 9 8 7 7 8 9 9 12 14 13 13 12 11 10 10 8 9 8 6 6 8 9 10 11 12
10 14 15 11 12 11 13 12 12 14 16 10 10 10 10 10 9 9 7 10 12 14 15 13 14 13 12 10 9 9 8 6 6 7 8 7 7 7
15 14 15 16 13 12 10 10 12 13 14 11 11 11 13 14 12 9 6 10 10 14 13 12 12 11 11 9 10 10 9 7 7 7 3 2 2 0
17 16 16 11 15 15 12 15 13 13 14 14 11 10 13 12 12 11 5 7 9 10 12 11 10 10 10 10 11 10 9 8 7 6 5 4 2 2
18 18 18 16 16 12 14 13 13 11 12 10 10 11 11 10 10 10 8 5 7 12 12 12 11 10 11 11 11 10 9 9 8 7 6 5 5 4
17 17 18 18 18 16 14 14 13 11 10 10 10 12 11 8 8 8 9 7 9 11 10 6 12 13 12 12 11 11 11 10 9 8 8 8 7 6
17 17 18 20 22 18 11 15 14 12 10 10 10 8 9 6 6 5 9 9 8 9 9 8 9 9 10 11 9 12 12 12 10 9 10 10 9 8
17 16 17 20 20 18 20 23 20 14 13 10 10 11 12 8 8 9 9 8 8 9 10 9 8 9 8 9 14 11 14 12 11 11 11 11 11 10
17 14 13 13 17 19 19 23 23 21 22 14 13 13 12 12 13 13 12 10 9 6 10 9 8 9 9 8 12 13 12 12 13 12 12 11 11 11
16 16 16 16 15 18 18 18 16 15 19 14 18 17 13 14 13 13 11 11 10 9 9 11 8 8 8 7 13 13 13 13 13 13 12 12 12 12
14 15 16 16 17 17 19 19 18 17 13 17 17 17 16 13 11 8 11 10 12 12 11 12 9 8 8 7 7 12 12 11 12 12 13 13 11 9
13 14 19 20 18 16 18 17 16 18 13 13 14 15 11 11 15 15 14 13 13 11 11 10 8 7 6 7 8 8 7 7 9 11 12 11 13 6
9 11 10 15 19 20 17 15 18 13 13 11 10 9 11 15 15 16 17 16 14 13 6 13 10 9 5 5 7 8 7 6 6 5 6 9 14 11
11 11 13 13 14 17 14 16 15 12 10 8 9 10 11 11 13 13 16 16 15 15 7 15 9 11 11 5 6 8 8 6 5 5 5 5 5 4
9 13 20 18 16 12 14 14 12 8 8 8 9 10 10 9 9 12 15 15 17 14 10 16 10 10 8 5 7 7 8 5 7 7 6 5 5 5
10 11 15 14 12 10 8 8 7 8 10 9 9 8 8 8 10 12 11 10 11 9 13 16 12 11 5 3 7 7 4 5 9 8 6 5 3 3
14 7 9 4 5 6 5 6 5 7 8 7 7 9 9 9 11 12 11 10 12 7 7 7 8 9 4 6 3 8 5 6 7 6 6 4 2 3
4 5 7 7 6 5 5 4 6 8 7 8 9 9 8 9 10 10 10 8 9 9 9 5 8 6 2 4 9 5 7 7 5 8 4 4 3 3
6 7 7 7 7 8 6 2 3 2 2 3 5 6 6 6 4 7 10 6 6 6 8 8 9 8 5 4 2 9 5 4 5 3 3 2 4 5
5 6 6 5 5 7 9 6 5 4 3 2 1 2 2 6 6 5 3 4 5 5 5 7 9 10 10 7 5 2 10 5 5 5 5 4 5 9
7 7 7 6 6 6 6 8 7 6 5 5 5 4 4 4 2 5 5 7 7 6 6 4 4 16 8 7 5 3 2 10 5 5 5 5 3 4
6 7 7 7 5 5 5 4 5 6 6 6 7 5 6 6 5 6 6 6 6 7 7 6 7 8 3 3 5 6 3 3 5 6 6 3 3 6
7 8 7 8 7 6 6 7 6 4 4 4 6 7 7 7 6 7 7 8 9 8 7 7 5 6 5 5 7 4 6 6 4 6 5 2 6 8
Wind_Direction
229 228 229 243 251 248 247 235 241 266 265 255 254 241 250 250 253 255 266 258 236 241 238 240 228 219 220 226 226 233 228 246 277 283 282 278 275 269
226 228 239 241 244 238 240 241 241 249 263 260 262 251 258 257 246 252 255 261 247 247 247 239 230 216 198 209 218 214 223 240 263 268 265 278 280 269
235 229 234 244 246 244 240 239 239 243 250 250 256 260 252 260 269 258 244 262 263 230 233 233 230 217 194 208 209 206 215 223 234 236 240 251 248 17
245 242 238 238 238 239 239 236 232 237 245 246 244 250 248 261 270 261 239 242 264 232 214 216 208 211 212 200 202 202 201 204 213 216 220 228 223 228
244 247 250 245 240 232 233 240 234 228 233 244 247 249 255 259 256 255 251 239 239 250 214 208 209 214 214 208 200 197 200 201 206 209 203 207 206 232
257 246 246 249 250 246 234 230 235 232 222 235 239 242 247 242 235 255 257 240 240 234 218 212 180 192 203 211 202 199 200 199 205 201 202 202 205 217
264 256 250 249 251 247 248 245 237 233 231 230 234 237 230 202 217 221 246 255 217 244 221 190 192 199 197 202 208 207 197 198 201 203 207 206 205 212
273 268 259 250 246 242 244 246 250 246 234 229 238 232 234 223 225 232 236 241 244 212 222 213 189 201 214 210 191 187 195 199 203 208 214 214 211 208
268 263 258 256 249 255 241 234 238 236 237 243 236 233 231 222 224 225 233 232 234 264 233 215 191 204 204 205 171 185 192 198 207 212 209 216 219 207
265 258 252 251 247 253 256 253 238 230 237 233 241 244 231 235 228 225 229 230 251 249 231 252 188 202 187 207 168 189 198 202 210 211 211 210 213 214
268 257 255 253 244 239 251 249 249 245 230 228 236 230 240 236 229 220 225 230 248 239 207 241 206 207 190 197 186 186 192 202 213 211 208 212 199 187
288 271 253 245 243 232 241 247 246 244 229 235 231 239 234 228 214 223 234 239 235 245 215 218 215 199 191 196 191 171 184 192 212 218 214 196 165 191
290 279 270 242 236 242 232 248 244 255 236 228 224 226 229 228 230 224 234 238 231 233 200 209 199 206 211 149 179 184 194 163 195 183 160 171 179 205
273 277 271 257 263 249 233 234 243 231 228 212 215 221 226 224 231 221 222 226 232 231 223 211 219 198 199 176 171 164 181 186 185 181 166 127 162 267
278 282 278 269 261 264 248 237 229 229 228 211 212 218 217 230 242 230 224 226 231 228 217 204 214 193 202 176 183 152 173 181 205 185 177 179 170 178
309 296 283 273 262 258 246 226 217 215 215 217 217 221 220 219 225 230 223 214 221 217 210 199 187 169 189 190 167 132 205 194 203 197 175 178 158 162
311 293 324 281 249 241 229 228 209 215 208 206 207 222 227 227 227 225 226 221 220 193 186 195 161 179 158 159 131 121 174 212 198 157 173 155 128 148
275 303 327 325 337 318 248 234 213 205 195 203 211 224 227 225 226 231 225 208 202 189 169 165 144 126 104 30 22 142 184 213 172 176 167 159 142 127
302 327 348 336 337 334 324 239 199 158 186 212 226 232 227 187 178 224 215 195 182 185 175 159 173 146 140 151 119 20 151 142 140 133 154 143 153 157
336 337 347 5 348 346 359 346 39 55 62 66 84 32 240 204 203 178 176 137 155 134 149 157 158 169 173 138 147 130 14 144 151 152 149 112 74 78
4 3 2 1 6 7 7 1 14 31 48 46 36 49 53 47 54 156 159 153 152 151 166 152 137 88 81 104 110 124 72 40 41 155 152 137 149 158
20 15 14 17 13 359 32 15 21 12 33 47 41 28 51 58 58 59 71 85 86 99 94 76 71 92 79 98 110 116 127 127 77 60 49 48 160 185
10 3 17 23 32 29 26 42 52 85 84 43 54 76 58 52 43 51 70 76 81 79 79 79 70 61 62 96 108 119 127 145 149 173 156 166 110 97